This is the latest recevied weather packets stored in our database for station/object SR9WXP. If no packets are shown the sender has not sent any weather packets the latest 1 day(s).
| Time | Temp. | Humidity | Pressure | Rain* | Wind** | Luminosity | Snow |
|---|---|---|---|---|---|---|---|
| 1778027634 | 7.78° C | 64% | 847.7 hPa | - | 6.71 m/s, 178° | - | - |
| 1778027575 | 7.78° C | 64% | 847.8 hPa | - | 6.26 m/s, 177° | - | - |
| 1778027454 | 7.78° C | 64% | 847.8 hPa | - | 5.81 m/s, 172° | - | - |
| 1778027331 | 7.78° C | 64% | 847.8 hPa | - | 6.71 m/s, 179° | - | - |
| 1778027212 | 7.78° C | 64% | 847.9 hPa | - | 7.15 m/s, 177° | - | - |
| 1778027093 | 7.78° C | 63% | 847.9 hPa | - | 6.71 m/s, 174° | - | - |
| 1778027031 | 7.78° C | 63% | 847.9 hPa | - | 6.26 m/s, 179° | - | - |
| 1778026971 | 7.78° C | 63% | 847.9 hPa | - | 6.26 m/s, 183° | - | - |
| 1778026851 | 7.78° C | 63% | 847.9 hPa | - | 6.71 m/s, 177° | - | - |
| 1778026728 | 7.78° C | 63% | 847.9 hPa | - | 5.81 m/s, 178° | - | - |
| 1778026609 | 7.78° C | 63% | 847.9 hPa | - | 6.26 m/s, 176° | - | - |
| 1778026488 | 7.78° C | 63% | 847.8 hPa | - | 5.81 m/s, 182° | - | - |
| 1778026427 | 7.78° C | 63% | 847.8 hPa | - | 5.36 m/s, 178° | - | - |
| 1778026366 | 7.78° C | 63% | 847.8 hPa | - | 5.81 m/s, 171° | - | - |
| 1778026246 | 7.78° C | 63% | 847.9 hPa | - | 5.81 m/s, 174° | - | - |
| 1778026133 | 7.78° C | 63% | 847.9 hPa | - | 5.81 m/s, 170° | - | - |
| 1778026004 | 7.78° C | 63% | 847.9 hPa | - | 6.26 m/s, 174° | - | - |
| 1778025884 | 7.78° C | 63% | 847.9 hPa | - | 6.71 m/s, 176° | - | - |
| 1778025822 | 7.78° C | 63% | 847.9 hPa | - | 6.71 m/s, 172° | - | - |
| 1778025763 | 7.78° C | 63% | 847.9 hPa | - | 6.26 m/s, 180° | - | - |
| 1778025643 | 7.78° C | 63% | 848 hPa | - | 6.71 m/s, 182° | - | - |
| 1778025519 | 7.78° C | 63% | 848.1 hPa | - | 6.26 m/s, 176° | - | - |
| 1778025401 | 7.78° C | 63% | 848.1 hPa | - | 6.71 m/s, 173° | - | - |
| 1778025281 | 7.78° C | 63% | 848.1 hPa | - | 7.15 m/s, 169° | - | - |
| 1778025219 | 7.78° C | 63% | 848.2 hPa | - | 6.26 m/s, 172° | - | - |
* Rain since midnight (hover to see other rain measurements)
** Current wind speed in m/s (hover to see current wind gust speed)